CW4797 Weather Reports


time (UTC)temp
F
wind
direction
speed
knots
gust
knots
rain 1hr
in
rain 24hr
in
rain mn
in
humidity
%
barometer
mb
20240420173043 54 312 0.0 0.9 0.00 0.01 0.01 53 1010.2
20240420171539 54 286 0.0 1.7 0.00 0.01 0.01 38 1010.3
20240420170033 53 240 0.0 0.9 0.00 0.01 0.01 1 1010.4
20240420164542 53 240 0.0 2.6 0.00 0.01 0.01 1 1010.8
20240420163024 53 240 0.0 2.6 0.00 0.01 0.01 1 1010.8
20240420161522 54 227 0.9 3.5 0.00 0.01 0.01 1 1011.1
20240420160015 53 233 0.0 3.5 0.00 0.01 0.01 1 1011.2
20240420154510 53 252 0.0 1.7 0.00 0.01 0.01 1 1011.4
20240420153010 51 250 0.0 2.6 0.00 0.01 0.01 1 1011.3
20240420151501 50 254 0.0 0.0 0.00 0.01 0.01 1 1011.5
20240420150057 49 253 0.0 0.0 0.00 0.01 0.01 1 1011.9
20240420144558 48 275 0.0 0.0 0.00 0.01 0.01 1 1012.0
20240420143047 48 235 0.0 0.0 0.00 0.01 0.01 1 1012.3
20240420141547 47 272 0.0 0.0 0.00 0.01 0.01 1 1012.5
20240420140100 47 290 0.0 0.0 0.00 0.01 0.01 1 1012.7
20240420134547 47 304 0.0 0.0 0.00 0.01 0.01 1 1012.7
20240420133032 46 265 0.0 0.0 0.00 0.01 0.01 1 1012.6
20240420131525 46 289 0.0 0.0 0.00 0.01 0.01 1 1012.8
20240420130052 46 291 0.0 0.0 0.00 0.01 0.01 1 1013.0
20240420124516 45 291 0.0 0.0 0.00 0.01 0.01 1 1013.1
20240420123012 45 304 0.0 0.0 0.00 0.01 0.01 1 1013.7
20240420121508 45 283 0.0 0.0 0.00 0.01 0.01 1 1013.5
20240420120002 45 245 0.9 7.8 0.00 0.01 0.01 1 1012.2
20240420114558 45 267 0.0 0.9 0.00 0.01 0.01 1 1013.1
20240420113056 44 271 0.0 0.0 0.00 0.01 0.01 1 1013.3
20240420111549 44 271 0.0 0.9 0.00 0.01 0.01 1 1013.6
20240420110044 44 243 0.0 2.6 0.00 0.01 0.01 1 1013.5
20240420104551 44 248 0.0 2.6 0.00 0.01 0.01 1 1013.8
20240420103039 44 279 0.0 1.7 0.00 0.01 0.01 1 1013.9
20240420101533 44 252 0.0 0.9 0.00 0.01 0.01 1 1014.2
20240420100028 44 252 0.0 0.9 0.01 0.01 0.01 1 1013.9
20240420094526 44 244 0.0 0.0 0.01 0.01 0.01 1 1013.6
20240420093020 44 244 0.0 0.9 0.01 0.01 0.01 13 1013.9
20240420091515 45 240 0.0 0.9 0.01 0.01 0.01 30 1013.6
20240420090011 46 242 0.0 0.9 0.00 0.00 0.00 46 1013.8
20240420084512 46 261 0.0 3.5 0.00 0.00 0.00 59 1013.7
20240420083005 47 240 0.0 0.0 0.00 0.00 0.00 64 1013.8
20240420081502 47 249 0.0 1.7 0.00 0.00 0.00 65 1014.2
20240420080000 47 269 0.0 2.6 0.00 0.00 0.00 65 1014.4
20240420074502 47 258 0.0 4.3 0.00 0.00 0.00 65 1014.3
20240420073200 47 248 0.0 2.6 0.00 0.00 0.00 65 1014.4
20240420071557 47 242 0.0 1.7 0.00 0.00 0.00 66 1014.4
20240420070056 47 238 0.0 4.3 0.00 0.00 0.00 66 1014.7
20240420064554 47 251 0.9 6.1 0.00 0.00 0.00 65 1014.7
20240420063055 47 251 0.0 2.6 0.00 0.00 0.00 65 1014.9
20240420061608 47 250 0.0 1.7 0.00 0.00 0.00 65 1015.0
20240420060049 47 217 0.0 3.5 0.00 0.00 0.00 65 1015.2
20240420054548 47 225 0.0 2.6 0.00 0.00 0.00 65 1015.3
20240420053045 47 261 0.0 7.0 0.00 0.00 0.00 65 1015.5
20240420051543 47 248 0.0 4.3 0.00 0.00 0.00 65 1015.5
20240420050041 47 236 0.0 3.5 0.00 0.00 0.00 65 1015.8
20240420044540 47 265 0.0 2.6 0.00 0.00 0.00 65 1016.0
20240420043045 47 252 0.0 3.5 0.00 0.00 0.00 65 1016.1
20240420041536 47 245 0.9 5.2 0.00 0.00 0.00 65 1016.1
20240420040035 47 244 0.0 1.7 0.00 0.00 0.00 64 1016.4
20240420034528 47 273 0.0 1.7 0.00 0.00 0.00 64 1016.5
20240420033023 46 249 0.0 2.6 0.00 0.00 0.00 63 1016.6
20240420031526 46 259 0.0 2.6 0.00 0.00 0.00 63 1016.6
20240420030021 46 243 0.0 4.3 0.00 0.00 0.00 63 1016.8
20240420024513 46 281 0.9 5.2 0.00 0.00 0.00 63 1016.9
20240420023007 46 246 0.9 7.8 0.00 0.00 0.00 63 1017.1
20240420021502 46 281 0.0 4.3 0.00 0.00 0.00 62 1017.3
20240420020101 46 249 0.0 3.5 0.00 0.00 0.00 62 1017.5
20240420014616 45 254 0.0 5.2 0.00 0.00 0.00 60 1017.8
20240420013057 45 236 0.0 4.3 0.00 0.00 0.00 56 1018.0
20240420011604 45 251 0.0 3.5 0.00 0.00 0.00 52 1018.1
20240420010047 44 238 0.9 3.5 0.00 0.00 0.00 49 1018.2
20240420004546 44 233 0.0 4.3 0.00 0.00 0.00 50 1018.2
20240420003053 45 248 0.0 3.5 0.00 0.00 0.00 57 1018.0
20240420001534 45 243 0.0 3.5 0.00 0.00 0.00 62 1017.8
20240420000036 46 236 0.9 6.1 0.00 0.00 0.00 65 1017.6
20240419234526 46 215 0.9 3.5 0.00 0.00 0.00 65 1017.6
20240419233022 46 249 0.9 7.8 0.00 0.00 0.00 64 1017.6
20240419231529 47 208 0.9 6.1 0.00 0.00 0.00 63 1017.7
20240419230013 47 246 0.9 7.0 0.00 0.00 0.00 63 1017.8
20240419224509 47 250 0.0 7.0 0.00 0.00 0.00 63 1018.0
20240419223002 47 235 1.7 6.1 0.00 0.00 0.00 60 1018.3
20240419221558 48 246 0.9 4.3 0.00 0.00 0.00 59 1017.8
20240419220053 49 244 1.7 7.8 0.00 0.00 0.00 59 1018.1
20240419214604 49 223 1.7 7.0 0.00 0.00 0.00 56 1018.2
20240419213043 49 205 1.7 8.7 0.00 0.00 0.00 57 1017.9
20240419211539 50 228 4.3 8.7 0.00 0.00 0.00 55 1017.9
20240419210034 50 246 0.0 8.7 0.00 0.00 0.00 57 1018.2
20240419204530 51 269 0.9 8.7 0.00 0.00 0.00 57 1018.6
20240419203031 51 248 2.6 8.7 0.00 0.00 0.00 55 1018.6
20240419201521 52 198 0.9 7.8 0.00 0.00 0.00 54 1018.9
20240419200036 52 225 1.7 9.6 0.00 0.00 0.00 55 1019.3
20240419194513 53 231 0.9 6.1 0.00 0.00 0.00 55 1019.4
20240419193009 53 286 0.9 9.6 0.00 0.00 0.00 55 1019.5
20240419191503 53 215 0.9 8.7 0.00 0.00 0.00 54 1019.5
20240419190059 54 241 3.5 9.6 0.00 0.00 0.00 52 1019.4
20240419184600 54 243 0.0 7.0 0.00 0.00 0.00 52 1019.7
20240419183055 55 241 0.0 7.8 0.00 0.00 0.00 51 1020.0
20240419181544 56 244 0.0 7.0 0.00 0.00 0.00 51 1020.1
20240419180046 56 201 0.0 0.0 0.00 0.00 0.00 52 1020.4
20240419174536 55 271 0.0 10.4 0.00 0.00 0.00 52 1020.3